This is the latest recevied weather packets stored in our database for station/object WB9ZLM. If no packets are shown the sender has not sent any weather packets the latest 10 day(s).
| Time | Temp. | Humidity | Pressure | Rain* | Wind** | Luminosity | Snow |
|---|---|---|---|---|---|---|---|
| 1777881660 | 13.89° C | 62% | 1008.2 hPa | 0 mm | - | - | - |
| 1777880821 | 13.89° C | 59% | 1008.5 hPa | 0 mm | - | - | - |
| 1777880760 | 13.89° C | 59% | 1008.5 hPa | 0 mm | - | - | - |
| 1777879921 | 13.89° C | 59% | 1008.7 hPa | 0 mm | - | - | - |
| 1777879860 | 13.89° C | 59% | 1008.7 hPa | 0 mm | - | - | - |
| 1777879021 | 13.89° C | 58% | 1008.7 hPa | 0 mm | - | - | - |
| 1777878960 | 13.89° C | 58% | 1008.7 hPa | 0 mm | - | - | - |
| 1777878122 | 13.89° C | 59% | 1014.1 hPa | 0 mm | - | - | - |
| 1777878060 | 13.89° C | 59% | 1014.1 hPa | 0 mm | - | - | - |
| 1777877221 | 14.44° C | 59% | 1014.1 hPa | 0 mm | - | - | - |
| 1777877160 | 14.44° C | 59% | 1014.1 hPa | 0 mm | - | - | - |
| 1777876742 | 14.44° C | 61% | 1009.1 hPa | 0 mm | - | - | - |
| 1777876321 | 14.44° C | 61% | 1009.1 hPa | 0 mm | - | - | - |
| 1777876260 | 14.44° C | 61% | 1009.1 hPa | 0 mm | - | - | - |
| 1777875421 | 14.44° C | 59% | 1009.2 hPa | 0 mm | - | - | - |
| 1777875360 | 14.44° C | 59% | 1009.2 hPa | 0 mm | - | - | - |
| 1777874521 | 14.44° C | 58% | 1009.4 hPa | 0 mm | - | - | - |
| 1777874460 | 14.44° C | 58% | 1009.4 hPa | 0 mm | - | - | - |
| 1777873622 | 14.44° C | 58% | 1009.7 hPa | 0 mm | - | - | - |
| 1777873560 | 14.44° C | 58% | 1009.7 hPa | 0 mm | - | - | - |
| 1777872721 | 14.44° C | 58% | 1009.8 hPa | 0 mm | - | - | - |
| 1777872660 | 14.44° C | 58% | 1009.8 hPa | 0 mm | - | - | - |
| 1777871821 | 15° C | 57% | 1014.1 hPa | 0 mm | - | - | - |
| 1777871760 | 15° C | 57% | 1014.1 hPa | 0 mm | - | - | - |
| 1777871052 | 15° C | 56% | 1014.1 hPa | 0 mm | - | - | - |
* Rain latest hour (hover to see other rain measurements)
** Current wind speed in m/s (hover to see current wind gust speed)